Location: Meanaryar
(48.4161°N, 4.7315°W)
Time: 17:24:27
(UTC+00:00)

CZ-2C R/B - Pass Details

Date: 18 September 2020
Orbit: 640 x 704 km, 98.4° (Epoch: 30 October)

Event Time Altitude Azimuth Distance (km) Brightness Sun altitude
Rises 19:59:25 0° 23° (NNE) 2,963 7.0 -16.2°
Reaches altitude 10° 20:01:52 10° 34° (NE) 2,052 6.1 -16.6°
Enters shadow 20:05:30 30° 88° (E) 1,173 4.5 -17.1°
